Location: Stuttgart
(48.8069°N, 9.1544°E)
Time: 02:33:26
(UTC+02:00)

ISS - Pass Details

Date: 18 May 2021
Orbit: 417 x 422 km, 51.6° (Epoch: 15 June)

Event Time Altitude Azimuth Distance (km) Brightness Sun altitude
Rises 01:16:22 0° 286° (WNW) 2,371 0.3 -21.6°
Reaches altitude 10° 01:18:30 10° 290° (WNW) 1,506 -0.7 -21.6°
Maximum altitude 01:21:50 58° 10° (N) 496 -3.2 -21.6°
Enters shadow 01:22:34 45° 62° (ENE) 586 -2.9 -21.6°
